Zurück zum Katalog

STARLINK-32797

AktivKommunikationVLEO
NORAD 62843·PAYLOAD·🇺🇸 United States

Gestartet Jan 27, 2025 von Cape Canaveral Space Force Station

Loading…

Nächste Überflüge (nächste 24 Stunden)

TLE

AktuellSource: CelesTrak SupGP

Epoche: Sep 15, 2026, 03:44 UTC

1 62843C 25019Q   26258.15604167  .00000176  00000+0  63810-5 0  2587
2 62843  42.9998  98.9112 0001473 271.1499 249.4479 15.27588509    14

Verfolge STARLINK-32797 in Echtzeit mit AllMySat

Download on the App Store